Regional Weather Roundup
Issued by NWS

Home | Current Version | Previous Version | Text Only | Print | Product List | Glossary On
Versions: 1 2 3 4 5 6 7 8 9 10 11 12 13 14 15 16 17 18 19 20 21 22 23 24 25 26 27
000
ASPQ40 PGUM 221212
RWRPQ
WEATHER ROUNDUP FOR THE MARIANAS AND MICRONESIA
NATIONAL WEATHER SERVICE TIYAN GU
1000 PM CHST SUN OCT 22 2017

GUZ001>004-221300-
MARIANA ISLANDS-

CITY           SKY/WX    TMP DP  RH WIND       PRES   REMARKS
GUAM AIRPORT   PTCLDY    81  79  94 N12       29.81F
ANDERSEN AFB   MOCLDY    79  75  89 E3        29.82F
ROTA AIRPORT   NOT AVBL
TINIAN AP      NOT AVBL
SAIPAN AP      MOCLDY    81  81 100 N5        29.80R HX  91

$$

PMZ161-221300-
REPUBLIC OF PALAU-

CITY           SKY/WX    TMP DP  RH WIND       PRES   REMARKS
KOROR AP       MOCLDY    84  79  84 W6        29.82R HX  96
KOROR WSO      MOCLDY    84  77  79 W10       29.83R HX  94

$$

PMZ171>174-221300-
FEDERATED STATES OF MICRONESIA-

CITY           SKY/WX    TMP DP  RH WIND       PRES   REMARKS
YAP AIRPORT    CLOUDY    79  77  94 VRB3      29.80F
CHUUK AP       CLOUDY    81  77  89 VRB6      29.73S
POHNPEI AP     LGT RAIN  77  75  94 S3        29.84S
POHNPEI WSO    LGT RAIN  75  75 100 SE3       29.87S
KOSRAE AP      NOT AVBL

$$

PMZ181-221300-
REPUBLIC OF THE MARSHALL ISLANDS-

CITY           SKY/WX    TMP DP  RH WIND       PRES   REMARKS
KWAJALEIN AP   PTCLDY    81  73  78 S16       29.89F
MAJURO AP      NOT AVBL
MAJURO WSO     MOCLDY    81  73  78 S5        29.89F

$$





USA.gov is the U.S. government's official web portal to all federal, state and local government web resources and services.